Regional Weather Roundup
Issued by NWS Grand Forks, ND

Home | Current Version | Previous Version | Graphics & Text | Print | Product List | Glossary On
Versions: 1 2 3 4 5 6 7 8 9 10 11 12 13 14 15 16 17 18 19 20 21 22 23 24 25 26 27 28 29 30 31 32 33 34 35 36 37 38 39 40 41 42 43 44 45 46 47 48 49 50
000
ASUS43 KFGF 010231
RWRFGF
PRAIRIE TO PINES  WEATHER ROUNDUP
NATIONAL WEATHER SERVICE EASTERN NORTH DAKOTA/GRAND FORKS ND
800 PM CST SAT FEB 28 2015

 **SATELLITE DATA USED TO AUGMENT SKY COVER AT AUTOMATED STATIONS**
 *****  WEATHER ACROSS EASTERN NORTH DAKOTA  *****

CITY           SKY/WX    TMP DP  RH WIND       PRES   REMARKS
GRAND FORKS    FAIR      12   5  73 W14       30.16R WCI  -3
GRAND FRKS AFB FAIR      10   2  72 NW10      30.16R WCI  -4
GRAND FRKS NWS   N/A     10 N/A N/A W10         N/A  WCI  -3
DEVILS LAKE    CLEAR      3  -6  66 W12       30.13S WCI -13
FARGO          FLURRIES  20  13  74 W20       30.17R WCI   4
WAHPETON ARPT  CLOUDY    21  19  93 S14       30.18S WCI   8
$$

 ***** WEATHER ACROSS CENTRAL AND WESTERN NORTH DAKOTA  *****

CITY           SKY/WX    TMP DP  RH WIND       PRES   REMARKS
BISMARCK       CLOUDY    14   4  64 NW12      30.20R WCI   0
MINOT          CLEAR      4  -3  73 SW7       30.14S WCI  -8
JAMESTOWN      CLEAR      6  -1  73 W9        30.16S WCI  -8
MINOT AFB      CLEAR     -1  -5  84 W6        30.14S WCI -13
GARRISON         N/A      4  -1  80 W5        30.16R WCI  -5
WILLISTON      CLEAR      1  -4  79 W3        30.15R
DICKINSON      CLEAR      7   0  73 NW8       30.11R WCI  -6
HETTINGER      CLEAR      8   1  73 W6        30.14R WCI  -2
$$

 *****  OTHER AIRPORT OBSERVATIONS IN OUR AREA  *****

CITY           SKY/WX    TMP DP  RH WIND       PRES   REMARKS
WALHALLA         N/A      9   0  66 W7        30.12S WCI  -3
GRAFTON AIRPOR NOT AVBL
VALLEY CITY AR FAIR       9   3  78 W12       30.17S WCI  -6
CANDO          FAIR       1  -2  85 W14       30.12S WCI -17
CAVALIER APRT  MOCLDY     9   1  72 W14       30.12S WCI  -8
GWINNER        CLOUDY    19  10  68 NW18      30.19R WCI   4
ROLLA          FAIR       5   0  78 W15       30.07F WCI -13
 ***** THE ABOVE OBSERVATIONS ARE NON NWS ARE NOT QUALITY
       CONTROLLED AND MAY MIS-REPORT RAIN FOR SNOW...
$$

  *****  WEATHER ACROSS NORTHERN MINNESOTA  *****

CITY           SKY/WX    TMP DP  RH WIND       PRES   REMARKS
FLAG ISLAND    LGT SNOW  19  18  93 SW12      30.04S VSB 3/4 WCI   7
WARROAD        LGT SNOW  19  16  86 SW10      30.07S WCI   8
ROSEAU         LGT SNOW  19  14  79 SW10      30.06F WCI   8
HALLOCK        PTCLDY    10   7  85 W13       30.11R WCI  -5
THF RVR FALLS  CLOUDY    18  16  93 W16       30.11S WCI   3
BAUDETTE       LGT SNOW  20  16  84 S9        30.06F FOG     WCI   9
WASKISH        CLOUDY    19  14  79 S7        30.10F WCI  10
CROOKSTON      FAIR      16  10  79 W16       30.16R WCI   0
STEPHEN NDAWN    N/A     16   9  73 W16         N/A  WCI   0
GREENBUSH NDAW   N/A     18  16  93 MISG        N/A
$$
  *****  WEATHER ACROSS CENTRAL AND WEST MINNESOTA  *****

CITY           SKY/WX    TMP DP  RH WIND       PRES   REMARKS
FOSSTON        LGT SNOW  18  16  93 S18       30.11S WCI   2
BEMIDJI        LGT SNOW  17  13  84 S9        30.12S WCI   6
PARK RAPIDS    LGT SNOW  18  13  80 S15       30.14F WCI   4
ELBOW LAKE     CLOUDY    18  13  84 S14       30.18S WCI   4
WADENA         FLURRIES  14  10  85 S9        30.16F WCI   2
DETROIT LAKES  LGT SNOW  21  18  86 S13       30.14F WCI   9
MOORHEAD       FLURRIES  21  18  86 W18       30.18R WCI   6
FERGUS FALLS   FLURRIES  19  14  79 S14       30.21F WCI   6
MORRIS MN      CLOUDY    19  14  79 S13       30.19F WCI   7
STAPLES        FLURRIES  16  10  79 S12       30.19F WCI   3
$$
  *****  WEATHER ELSEWHERE ACROSS MINNESOTA  *****

CITY           SKY/WX    TMP DP  RH WIND       PRES   REMARKS
DULUTH         MOCLDY    16   2  54 S10       30.23S WCI   4
INTRNTL FALLS  CLOUDY    20   4  50 SW15G22   30.11F WCI   6
ELY            PTCLDY    16   0  48 SW12      30.17F WCI   3
CLOQUET        CLOUDY    14   1  57 S10       30.24F WCI   1
WHEATON        NOT AVBL
BRAINERD       CLOUDY    15   8  73 S13       30.22F WCI   1
HIBBING        CLOUDY    17   3  54 S10G18    30.19S WCI   5
ALEXANDRIA     CLOUDY    18  13  80 S13       30.19F WCI   5
SAINT CLOUD    CLOUDY    16   7  67 S10       30.28F WCI   4
MINNEAPOLIS    MOCLDY    13   2  61 S10       30.36F WCI   0
$$

  *****  WEATHER ACROSS SOUTH DAKOTA  *****

CITY           SKY/WX    TMP DP  RH WIND       PRES   REMARKS
SIOUX FALLS    CLEAR     21  12  68 S13       30.21R WCI   9
BROOKINGS      NOT AVBL
WATERTOWN      CLOUDY    21  13  71 S7        30.13S WCI  12
HURON          PTCLDY    19  13  77 NW10      30.19R WCI   7
SISSETON         N/A     25  16  68 SW3       30.17R
ABERDEEN       CLOUDY    21  12  68 NW16      30.20R WCI   7
MITCHELL       PTCLDY    27  16  63 N12       30.20R WCI  17
PIERRE         CLEAR     15   7  70 NW7       30.20R WCI   5
MOBRIDGE       MOCLDY    14   5  67 NW7       30.17R WCI   4
RAPID CITY     CLEAR     16   8  71 N13       30.14R WCI   2
$$

  *****  SOME WEATHER IN NEARBY STATES *****

CITY           SKY/WX    TMP DP  RH WIND       PRES   REMARKS
GLASGOW MT     PTCLDY    19   8  62 W13       30.14R WCI   6
GREAT FALLS MT PTCLDY    16   9  74 SW9       30.15R WCI   4
CHEYENNE WY    CLOUDY    20  11  68 E8        29.94R WCI  10
SCOTTSBLUFF NE CLOUDY    24  11  57 E8        30.06R WCI  15
OMAHA NE       FLURRIES  23  17  78 S10       30.36S WCI  12
DES MOINES IA  FLURRIES  22  18  85 SE6       30.39F WCI  14
DAVENPORT IA   CLOUDY    13   8  81 E7        30.48F WCI   3
CHICAGO IL     LGT SNOW  18  14  84 S6        30.51F FOG     WCI  10
EAU CLAIRE WI  CLOUDY    15  -2  46 S9        30.38F WCI   3
LA CROSSE WI   CLOUDY    18   2  49 S10       30.44F WCI   6
$$

  *****  SOME NATIONAL WEATHER *****

CITY           SKY/WX    TMP DP  RH WIND       PRES   REMARKS
LA GUARDIA NY  PTCLDY    27   4  37 SW6       30.75S WCI  20
RALEIGH NC     MOCLDY    30  16  56 NE3       30.71R
ATLANTA GA     CLOUDY    47  29  49 E12       30.52R
NEW ORLEANS LA PTCLDY    57  50  77 E13       30.32F
OKLAHOMA CITY  FRZ DRZL  27  23  85 E5        30.31R FOG     WCI  22
ALBUQUERQUE NM MOCLDY    34  27  75 N15       29.94R WCI  24
SALT LAKE CITY CLOUDY    36  32  85 S8        29.81R
LOS ANGELES CA MOCLDY    57  46  66 SW10      29.86R
BOISE ID       LGT RAIN  43  32  65 E9        29.90R
SEATTLE WA     CLEAR     47  25  42 N9        30.18R
$$

*** WEATHER ACROSS MANITOBA...SASKATCHEWAN AND ONTARIO ***
                ***ONTARIO***

CITY           SKY/WX    TMP DP  RH WIND       PRES   REMARKS
GERALDTON      PTCLDY    14   7  73 S13G20    30.18F WCI   0
THUNDER BAY    CLOUDY    18   5  57 SW6       30.25F WCI   9
SIOUX LOOKOUT  CLOUDY    18   0  45 S8        30.04F WCI   7
TORONTO        CLEAR     14   3  62 SW5       30.64F WCI   6
BIG TROUT LK   PTCLDY     7   1  78 SW7       29.93F WCI  -5
PICKLE LAKE    MOCLDY    16   1  53 S8        29.99F WCI   5
DRYDEN         CLOUDY    19   3  49 SW12      30.04F WCI   7
KENORA         LGT SNOW  18  16  93 S8        30.01F VSB 1   WCI   7
$$
                *** MANITOBA***

CITY           SKY/WX    TMP DP  RH WIND       PRES   REMARKS
BRANDON        CLEAR      3  -2  78 W14       30.08R WCI -15
DAUPHIN        CLEAR      9   1  72 W15       30.03S WCI  -8
ISLAND LAKE    PTCLDY    16   3  57 SW8       29.92F WCI   5
PILOT MOUND      N/A      0  -4  85 W6          N/A  WCI -12
THE PAS        MOCLDY    12   5  73 W6        29.96R WCI   3
THOMPSON       FLURRIES  10   7  85 NW5       29.90R WCI   2
WINNIPEG       CLEAR     10   5  79 SW9       30.07F WCI  -2
LYNN LAKE      CLEAR      7  -6  56 NW9       29.92R WCI  -7
CHURCHILL      CLEAR     -6 -13  71 NW21      29.89S WCI -30
GILLAM         LGT SNOW  10   7  85 NW8       29.85S VSB 3/4 WCI  -1
$$
                ***SASKATCHEWAN***

CITY           SKY/WX    TMP DP  RH WIND       PRES   REMARKS
ESTEVAN        PTCLDY     0  -6  78 W9        30.11S WCI -16
KINDERSLEY     LGT SNOW  18  16  93 W15       30.09S DRFTSNOWWCI   3
LLOYDMINSTER   CLOUDY    21  16  79 NW13      30.09R WCI   9
PRINCE ALBERT  CLOUDY    16  12  86 NW12      30.04R WCI   3
REGINA         FLURRIES   5   1  85 SW7       30.06S WCI  -7
YORKTON        FLURRIES   5   1  85 W12       30.01F WCI -11
N. BATTLEFORD  MOCLDY    18  16  93 NW10      30.09R WCI   6
LA RONGE       PTCLDY    12   9  85 W6        30.03R WCI   3
SASKATOON      FLURRIES  12  10  92 NW8       30.08R WCI   1
SWIFT CURRENT  MOCLDY    12  10  92 W8        30.07R WCI   1
$$
NOTE: THESE ARE AUTOMATED STATIONS WITH LIMITED QUALITY CONTROL
      "FAIR" INDICATES FEW OR NO CLOUDS BELOW 12,000 FEET WITH NO
      SIGNIFICANT WEATHER AND/OR OBSTRUCTIONS TO VISIBILITY.
      SKY/WX - SKY CONDITION AND SIGNIFICANT WEATHER.
      TMP - AIR TEMPERATURE.    DP   - DEWPOINT TEMPERATURE.
      RH  - RELATIVE HUMIDITY.  PRES - PRESSURE.
      HX  - HEAT INDEX.         WCI  - WIND CHILL INDEX.
$


USA.gov is the U.S. government's official web portal to all federal, state and local government web resources and services.